La Nava - Corral De Ayllón Airport

Jump to: basic info | weather | comments

Related pages: nearby airports | nearby navaids | notams | map

Basic information (top)

Codes: LECA
Location: lon 41.410801, lat -3.448330, elev 3,280 ft / 1,000 m msl
Status: small_airport

Weather (top)

Current conditions for Torrejón Airport 55nm (102km) S (rec'd 2014/11/23 11:00Z):

LETO 231100Z 00000KT 9999 FEW035 BKN060 15/12 Q1014 NOSIG

Airport forecast for Torrejón Airport 55nm (102km) S (rec'd 2014/11/23 06:57Z):

TAF COR LETO 230751Z 2306/2406 VRB04KT 9999 FEW040 BKN060 TX18/2316Z TN08/2406Z PROB40 
      TEMPO 2306/2309 16010KT 
      TEMPO 2306/2312 RA PROB30 
      TEMPO 2309/2406 SHRA FEW035TCU BKN040

Latest comments (top)

No comments yet for La Nava - Corral De Ayllón Airport

More... (top)

See also NOTAMs and nearby airports and navaids, or visit the La Nava - Corral De Ayllón Airport page at the main OurAirports website..